Regional Weather Roundup
Issued by NWS Goodland, KS

Home | Current Version | Previous Version | Graphics & Text | Print | Product List | Glossary On
Versions: 1 2 3 4 5 6 7 8 9 10 11 12 13 14 15 16 17 18 19 20 21 22 23 24 25 26 27 28 29 30 31 32 33 34 35 36 37 38 39 40 41 42 43 44 45 46 47 48 49 50
000
ASUS43 KGLD 291859
RWRGLD

GOODLAND FORECAST AREA HOURLY WEATHER ROUNDUP
NATIONAL WEATHER SERVICE GOODLAND KS
100 PM MDT TUE JUL 29 2014

...OFFICIAL OBSERVATIONS...

CITY           SKY/WX    TMP DP  RH WIND       PRES   REMARKS
GOODLAND KS    PTSUNNY   84  61  45 SE15G22   30.17F
HILL CITY KS   MOSUNNY   85  59  41 VRB3      30.15F
IMPERIAL NEB   MOSUNNY   80  59  48 E10       30.19F
MCCOOK NEB     MOSUNNY   82  59  45 E12G20    30.17F
AKRON CO       MOSUNNY   82  57  42 SE15G26   30.19F
BURLINGTON CO  PTSUNNY   83  62  49 S10G21    30.18F
LIMON CO       CLOUDY    77  52  41 E10       30.21F
$$

...UNOFFICIAL OBSERVATIONS...

CITY           SKY/WX    TMP DP  RH WIND       PRES   REMARKS
COLBY KS       PTSUNNY   84  64  51 SE7       30.18F
GOVE KS          N/A     84  32  15 MISG        N/A
LENORA KS        N/A     81  32  17 MISG        N/A
NORTON KS      MOSUNNY   86  50  28 E8        30.16F
WAKEENEY KS      N/A     85  50  29 MISG        N/A
TRENTON NEB      N/A     82  32  16 SE14        N/A
KIT CARSON CO    N/A     81  64  55 N5G16       N/A
YUMA CO          N/A     82  61  48 E8G18       N/A
$$


USA.gov is the U.S. government's official web portal to all federal, state and local government web resources and services.